FW9562 Weather Reports


time (UTC)temp
C
wind
direction
speed
KPH
gust
KPH
rain 1hr
cm
rain 24hr
cm
rain mn
cm
humidity
%
barometer
mb
20260505035543 14 75 0.0 3.2 0.00 0.00 0.00 69 1015.3
20260505035040 15 50 3.2 4.8 0.00 0.00 0.00 68 1015.3
20260505034536 15 56 1.6 3.2 0.00 0.00 0.00 68 1015.2
20260505034033 15 44 3.2 3.2 0.00 0.00 0.00 66 1015.3
20260505033530 15 71 0.0 3.2 0.00 0.00 0.00 65 1015.4
20260505033028 15 56 1.6 3.2 0.00 0.00 0.00 65 1015.4
20260505032526 15 69 1.6 3.2 0.00 0.00 0.00 64 1015.4
20260505032022 15 48 3.2 3.2 0.00 0.00 0.00 63 1015.5
20260505031520 15 63 1.6 3.2 0.00 0.00 0.00 62 1015.4
20260505031016 15 35 3.2 3.2 0.00 0.00 0.00 61 1015.3
20260505030513 15 50 1.6 3.2 0.00 0.00 0.00 60 1015.1
20260505030009 15 55 0.0 3.2 0.00 0.00 0.00 59 1015.4
20260505025505 15 55 0.0 3.2 0.00 0.00 0.00 59 1015.2
20260505025004 15 49 3.2 3.2 0.00 0.00 0.00 60 1015.3
20260505024500 15 31 3.2 4.8 0.00 0.00 0.00 59 1015.4
20260505023957 15 69 0.0 3.2 0.00 0.00 0.00 58 1015.3
20260505023454 16 53 1.6 1.6 0.00 0.00 0.00 58 1015.3
20260505022952 16 45 1.6 3.2 0.00 0.00 0.00 58 1015.3
20260505022449 16 52 0.0 3.2 0.00 0.00 0.00 58 1015.1
20260505021946 16 61 3.2 3.2 0.00 0.00 0.00 56 1015.0
20260505021443 16 89 0.0 1.6 0.00 0.00 0.00 56 1014.8
20260505020938 16 70 1.6 1.6 0.00 0.00 0.00 55 1015.0
20260505020434 16 44 0.0 3.2 0.00 0.00 0.00 55 1014.9
20260505015931 16 49 0.0 3.2 0.00 0.00 0.00 55 1015.0
20260505015428 16 55 1.6 3.2 0.00 0.00 0.00 56 1014.9
20260505014926 16 67 1.6 3.2 0.00 0.00 0.00 56 1014.9
20260505014422 16 61 1.6 4.8 0.00 0.00 0.00 54 1014.8
20260505013919 16 61 1.6 3.2 0.00 0.00 0.00 55 1014.8
20260505013416 16 58 1.6 3.2 0.00 0.00 0.00 55 1014.6
20260505012914 16 92 1.6 3.2 0.00 0.00 0.00 54 1014.5
20260505012412 16 76 1.6 3.2 0.00 0.00 0.00 54 1014.2
20260505011908 17 70 3.2 3.2 0.00 0.00 0.00 53 1014.4
20260505011405 17 81 1.6 3.2 0.00 0.00 0.00 51 1014.2
20260505010901 17 76 1.6 3.2 0.00 0.00 0.00 51 1014.3
20260505010357 17 86 1.6 3.2 0.00 0.00 0.00 51 1014.2
20260505005853 17 62 1.6 3.2 0.00 0.00 0.00 50 1014.0
20260505005350 17 88 1.6 3.2 0.00 0.00 0.00 48 1014.1
20260505004848 17 54 3.2 3.2 0.00 0.00 0.00 49 1013.9
20260505004344 17 89 0.0 3.2 0.00 0.00 0.00 48 1014.0
20260505003841 17 82 1.6 3.2 0.00 0.00 0.00 48 1014.0
20260505003338 17 81 3.2 4.8 0.00 0.00 0.00 48 1013.8
20260505002834 18 80 3.2 4.8 0.00 0.00 0.00 48 1013.8
20260505002331 18 78 3.2 4.8 0.00 0.00 0.00 49 1013.8
20260505001830 18 82 3.2 4.8 0.00 0.00 0.00 45 1013.7
20260505001326 19 83 3.2 4.8 0.00 0.00 0.00 45 1013.5
20260505000824 19 82 3.2 3.2 0.00 0.00 0.00 43 1013.7
20260505000321 20 82 3.2 3.2 0.00 0.00 0.00 42 1013.4
20260504235818 20 80 3.2 4.8 0.00 0.00 0.00 42 1013.5
20260504235315 20 88 3.2 3.2 0.00 0.00 0.00 42 1013.4
20260504234811 20 63 3.2 3.2 0.00 0.00 0.00 40 1013.4
20260504234309 21 69 1.6 3.2 0.00 0.00 0.00 40 1013.2
20260504233805 21 82 1.6 3.2 0.00 0.00 0.00 39 1013.3
20260504233301 21 66 3.2 3.2 0.00 0.00 0.00 39 1013.2
20260504232758 21 72 0.0 3.2 0.00 0.00 0.00 39 1013.3
20260504232255 22 44 1.6 3.2 0.00 0.00 0.00 38 1013.2
20260504231752 22 67 1.6 3.2 0.00 0.00 0.00 37 1013.2
20260504231248 22 75 3.2 3.2 0.00 0.00 0.00 37 1013.2
20260504230744 23 62 3.2 3.2 0.00 0.00 0.00 36 1013.2
20260504230243 23 62 1.6 3.2 0.00 0.00 0.00 36 1013.0
20260504225741 23 86 1.6 1.6 0.00 0.00 0.00 36 1013.1
20260504225237 24 103 1.6 3.2 0.00 0.00 0.00 34 1013.0
20260504224734 25 67 3.2 3.2 0.00 0.00 0.00 33 1013.0
20260504224232 26 96 0.0 3.2 0.00 0.00 0.00 33 1013.1
20260504223728 26 20 3.2 4.8 0.00 0.00 0.00 31 1013.0
20260504223223 28 322 0.0 4.8 0.00 0.00 0.00 32 1013.2
20260504222721 28 309 3.2 4.8 0.00 0.00 0.00 28 1013.3
20260504222218 28 248 0.0 3.2 0.00 0.00 0.00 31 1013.1
20260504221715 27 66 3.2 3.2 0.00 0.00 0.00 32 1013.2
20260504221212 28 281 3.2 4.8 0.00 0.00 0.00 29 1013.1
20260504220708 28 289 3.2 4.8 0.00 0.00 0.00 28 1013.3
20260504220206 29 135 0.0 4.8 0.00 0.00 0.00 28 1013.1
20260504215702 29 112 1.6 3.2 0.00 0.00 0.00 31 1013.5
20260504215200 28 60 0.0 3.2 0.00 0.00 0.00 33 1013.1
20260504214655 28 55 0.0 3.2 0.00 0.00 0.00 30 1013.4
20260504214152 28 72 0.0 3.2 0.00 0.00 0.00 32 1013.2
20260504213648 28 309 0.0 3.2 0.00 0.00 0.00 32 1013.1
20260504213145 28 315 0.0 3.2 0.00 0.00 0.00 33 1013.3
20260504212642 28 29 3.2 3.2 0.00 0.00 0.00 33 1013.4
20260504212138 28 248 3.2 3.2 0.00 0.00 0.00 31 1013.3
20260504211636 28 122 0.0 4.8 0.00 0.00 0.00 32 1013.5
20260504211132 28 229 0.0 3.2 0.00 0.00 0.00 31 1013.2
20260504210630 27 186 0.0 3.2 0.00 0.00 0.00 33 1013.6
20260504210126 27 243 1.6 4.8 0.00 0.00 0.00 32 1013.4
20260504205624 27 53 0.0 4.8 0.00 0.00 0.00 33 1013.3
20260504205121 27 176 0.0 3.2 0.00 0.00 0.00 32 1013.4
20260504204620 28 308 1.6 4.8 0.00 0.00 0.00 33 1013.3
20260504204118 28 81 0.0 6.4 0.00 0.00 0.00 31 1013.6
20260504203616 28 190 4.8 4.8 0.00 0.00 0.00 33 1013.5
20260504203114 28 242 1.6 8.0 0.00 0.00 0.00 31 1013.5
20260504202609 28 343 3.2 4.8 0.00 0.00 0.00 29 1013.9
20260504202106 28 298 3.2 3.2 0.00 0.00 0.00 33 1013.8
20260504201602 28 269 3.2 4.8 0.00 0.00 0.00 32 1013.8
20260504201100 28 180 0.0 3.2 0.00 0.00 0.00 32 1014.0
20260504200556 27 164 0.0 3.2 0.00 0.00 0.00 31 1014.1
20260504200053 27 288 4.8 9.7 0.00 0.00 0.00 33 1013.8
20260504195549 27 185 0.0 4.8 0.00 0.00 0.00 33 1013.9
20260504195046 27 289 3.2 8.0 0.00 0.00 0.00 30 1014.1
20260504194543 27 121 1.6 3.2 0.00 0.00 0.00 30 1014.1
20260504194038 27 185 1.6 4.8 0.00 0.00 0.00 33 1014.3
20260504193535 27 244 4.8 8.0 0.00 0.00 0.00 33 1014.2
20260504193034 27 332 3.2 4.8 0.00 0.00 0.00 32 1014.2
20260504192532 27 77 4.8 4.8 0.00 0.00 0.00 31 1014.3
20260504192029 28 217 1.6 4.8 0.00 0.00 0.00 30 1014.5
20260504191527 27 242 0.0 6.4 0.00 0.00 0.00 32 1014.3
20260504191023 27 167 0.0 4.8 0.00 0.00 0.00 33 1014.4
20260504190519 27 50 0.0 4.8 0.00 0.00 0.00 30 1014.5
20260504190015 27 218 3.2 3.2 0.00 0.00 0.00 33 1014.8
20260504185513 27 191 0.0 8.0 0.00 0.00 0.00 34 1014.9
20260504185009 27 292 4.8 6.4 0.00 0.00 0.00 32 1014.6
20260504184504 26 202 0.0 4.8 0.00 0.00 0.00 34 1014.8
20260504184000 26 197 0.0 8.0 0.00 0.00 0.00 32 1014.8
20260504183457 27 239 4.8 11.3 0.00 0.00 0.00 32 1015.1
20260504182955 27 43 0.0 4.8 0.00 0.00 0.00 30 1015.0
20260504182452 26 308 0.0 6.4 0.00 0.00 0.00 34 1015.0
20260504181949 26 289 4.8 6.4 0.00 0.00 0.00 36 1015.2
20260504181446 26 287 4.8 8.0 0.00 0.00 0.00 35 1015.3
20260504180945 26 19 6.4 6.4 0.00 0.00 0.00 33 1015.1
20260504180443 25 316 3.2 8.0 0.00 0.00 0.00 33 1015.1
20260504175941 26 2 9.7 12.9 0.00 0.00 0.00 34 1015.1
20260504175438 26 37 0.0 8.0 0.00 0.00 0.00 33 1015.3
20260504174936 26 77 4.8 4.8 0.00 0.00 0.00 34 1015.3
20260504174433 25 305 4.8 8.0 0.00 0.00 0.00 31 1015.4
20260504173930 25 356 1.6 6.4 0.00 0.00 0.00 30 1015.5
20260504173426 26 287 6.4 6.4 0.00 0.00 0.00 34 1015.4
20260504172924 25 239 4.8 4.8 0.00 0.00 0.00 36 1015.5
20260504172420 25 280 1.6 6.4 0.00 0.00 0.00 36 1015.4
20260504171916 24 45 3.2 8.0 0.00 0.00 0.00 40 1015.7
20260504171414 24 0 8.0 9.7 0.00 0.00 0.00 38 1015.8
20260504170911 24 194 0.0 9.7 0.00 0.00 0.00 36 1016.1
20260504170407 23 263 3.2 11.3 0.00 0.00 0.00 38 1016.1
20260504160326 22 114 1.6 11.3 0.00 0.00 0.00 40 1017.1
20260504150751 21 286 0.0 4.8 0.00 0.00 0.00 48 1017.3
20260504150247 21 100 0.0 6.4 0.00 0.00 0.00 50 1017.3
20260504141217 18 329 1.6 4.8 0.00 0.00 0.00 57 1017.4
20260504140714 18 294 6.4 6.4 0.00 0.00 0.00 57 1017.5
20260504140209 18 334 1.6 3.2 0.00 0.00 0.00 61 1017.3
20260504130638 15 339 0.0 3.2 0.00 0.00 0.00 70 1017.5
20260504130134 15 72 1.6 3.2 0.00 0.00 0.00 74 1017.4
20260504110526 5 59 4.8 6.4 0.00 0.00 0.00 99 1017.5
20260504100442 4 77 3.2 4.8 0.00 0.00 0.00 99 1017.2
20260504081835 5 77 4.8 4.8 0.00 0.00 0.00 89 1017.4
20260504081332 5 58 4.8 4.8 0.00 0.00 0.00 89 1017.2
20260504080827 6 65 4.8 4.8 0.00 0.00 0.00 87 1017.2
20260504080325 6 72 4.8 4.8 0.00 0.00 0.00 87 1017.3
20260504070252 6 77 4.8 4.8 0.00 0.00 0.00 83 1017.3
20260504060213 5 65 4.8 4.8 0.00 0.00 0.00 81 1017.4
20260504050640 6 70 4.8 4.8 0.00 0.00 0.00 86 1017.4
20260504050137 6 70 1.6 3.2 0.00 0.00 0.00 84 1017.2
20260504045635 6 52 1.6 3.2 0.00 0.00 0.00 82 1017.4
20260504045134 6 61 3.2 3.2 0.00 0.00 0.00 85 1017.6
20260504044633 6 41 3.2 4.8 0.00 0.00 0.00 86 1017.4
20260504044129 6 63 4.8 4.8 0.00 0.00 0.00 85 1017.5
20260504043626 6 70 4.8 4.8 0.00 0.00 0.00 87 1017.4
20260504043123 6 62 4.8 4.8 0.00 0.00 0.00 87 1017.6
20260504042621 6 45 1.6 4.8 0.00 0.00 0.00 88 1017.6
20260504042117 6 63 3.2 4.8 0.00 0.00 0.00 86 1017.3
20260504041613 6 39 1.6 4.8 0.00 0.00 0.00 85 1017.7
20260504041110 6 64 3.2 4.8 0.00 0.00 0.00 86 1017.6
20260504040607 6 58 3.2 4.8 0.00 0.00 0.00 86 1017.6
20260504040103 6 76 3.2 4.8 0.00 0.00 0.00 87 1017.4
20260504035600 6 61 3.2 4.8 0.00 0.00 0.00 85 1017.7